BEIDOU-2 IGSO-7

Last updated on Thu Oct 30 2025 00:02:51 GMT+0000 (Coordinated Universal Time)

1 43539U 18057A 25302.57573083 -.00000090 00000+0 00000+0 0 9993 2 43539 55.1689 165.0599 0091891 235.5399 317.3250 1.00270658 26816
UTC large
Height (km)
Speed (km/s)
/
Latitude / Longitude
Inclination (degrees)
Orbital Period (minutes)
Azimuth
Elevation
Range (km)
Doppler Factor

Next 0 passes for location: London (51.5072 / 0.1276)

Sorry there are no passes over London.